Regional Weather Roundup
Issued by NWS

Home | Current Version | Previous Version | Graphics & Text | Print | Product List | Glossary On
Versions: 1 2 3 4 5 6 7 8 9 10 11 12 13 14 15 16 17 18 19 20 21 22 23 24 25 26 27 28 29 30 31 32 33 34 35 36 37 38 39 40 41 42 43 44 45 46 47 48 49 50
000
ASUS43 KBIS 301910
RWRND

NORTH DAKOTA REGIONAL WEATHER ROUNDUP
NATIONAL WEATHER SERVICE BISMARCK ND
200 PM CDT FRI SEP 30 2016

NOTE: "FAIR" INDICATES FEW OR NO CLOUDS BELOW 12,000 FEET WITH NO
SIGNIFICANT WEATHER AND/OR OBSTRUCTIONS TO VISIBILITY.


NDZ001>003-009>011-017-302000-
NORTHWEST NORTH DAKOTA

CITY           SKY/WX    TMP DP  RH WIND       PRES   REMARKS
WILLISTON      MOSUNNY   63  49  60 S9G20     30.01S
MINOT          CLOUDY    64  48  56 SE13G21   30.09S
MINOT AFB      CLOUDY    62  49  60 S13       30.08S
$$

NDZ018>021-031>035-040>046-302000-
SOUTHWEST NORTH DAKOTA

CITY           SKY/WX    TMP DP  RH WIND       PRES   REMARKS
BISMARCK       PTSUNNY   72  49  44 SE17      30.11F
DICKINSON      CLOUDY    64  45  49 SE17      30.03F
GARRISON         N/A     60  49  66 SE9       30.09F
HETTINGER ARPT CLOUDY    64  44  48 SE16      30.08F
$$

NDZ004>008-012>016-024-026-027-054-302000-
NORTHEAST NORTH DAKOTA

CITY           SKY/WX    TMP DP  RH WIND       PRES   REMARKS
GRAND FORKS    CLOUDY    68  51  54 S14G22    30.24F
GRND FRKS AFB  CLOUDY    65  51  60 S15       30.24F
DEVILS LAKE    CLOUDY    67  50  54 S21G28    30.19F
$$

NDZ022-023-025-028>030-036>039-047>053-302000-
SOUTHEAST NORTH DAKOTA

CITY           SKY/WX    TMP DP  RH WIND       PRES   REMARKS
FARGO          MOSUNNY   69  50  50 SE14G21   30.24F
JAMESTOWN      PTSUNNY   68  49  50 S21       30.19F
$$




USA.gov is the U.S. government's official web portal to all federal, state and local government web resources and services.